| time (UTC) | temp F | wind direction | speed MPH | gust MPH | rain 1hr in | rain 24hr in | rain mn in | humidity % | barometer mb |
| 20260510195257 | 64 | 168 | 0.0 | 0.0 | 0.00 | 0.00 | 0.00 | 80 | 1014.9 |
| 20260510194757 | 64 | 168 | 0.0 | 0.0 | 0.00 | 0.00 | 0.00 | 79 | 1014.8 |
| 20260510194257 | 64 | 168 | 0.0 | 0.0 | 0.00 | 0.00 | 0.00 | 79 | 1014.9 |
| 20260510193757 | 64 | 168 | 0.0 | 0.0 | 0.00 | 0.00 | 0.00 | 79 | 1014.7 |
| 20260510193257 | 64 | 168 | 0.0 | 0.0 | 0.00 | 0.00 | 0.00 | 79 | 1014.8 |
| 20260510192757 | 65 | 168 | 2.0 | 4.0 | 0.00 | 0.00 | 0.00 | 79 | 1014.9 |
| 20260510192257 | 65 | 168 | 3.0 | 5.0 | 0.00 | 0.00 | 0.00 | 78 | 1014.9 |
| 20260510191757 | 65 | 152 | 2.0 | 4.0 | 0.00 | 0.00 | 0.00 | 78 | 1014.8 |
| 20260510191257 | 65 | 128 | 2.0 | 3.0 | 0.00 | 0.00 | 0.00 | 77 | 1014.8 |
| 20260510190757 | 65 | 128 | 3.0 | 4.0 | 0.00 | 0.00 | 0.00 | 77 | 1014.8 |
| 20260510190257 | 65 | 83 | 6.0 | 8.0 | 0.00 | 0.00 | 0.00 | 76 | 1014.6 |
| 20260510185757 | 66 | 67 | 5.0 | 8.0 | 0.00 | 0.00 | 0.00 | 75 | 1014.3 |
| 20260510185257 | 66 | 76 | 2.0 | 7.0 | 0.00 | 0.00 | 0.00 | 74 | 1014.4 |
| 20260510184757 | 66 | 138 | 2.0 | 3.0 | 0.00 | 0.00 | 0.00 | 73 | 1014.5 |
| 20260510184257 | 66 | 238 | 4.0 | 5.0 | 0.00 | 0.00 | 0.00 | 73 | 1014.5 |
| 20260510183757 | 66 | 247 | 5.0 | 7.0 | 0.00 | 0.00 | 0.00 | 73 | 1014.7 |
| 20260510183257 | 66 | 266 | 4.0 | 7.0 | 0.00 | 0.00 | 0.00 | 73 | 1014.7 |
| 20260510182757 | 66 | 274 | 7.0 | 7.0 | 0.00 | 0.00 | 0.00 | 73 | 1014.8 |
| 20260510182257 | 67 | 270 | 9.0 | 14.0 | 0.00 | 0.00 | 0.00 | 72 | 1015.0 |
| 20260510181757 | 67 | 248 | 9.0 | 15.0 | 0.00 | 0.00 | 0.00 | 72 | 1015.1 |
| 20260510181257 | 67 | 226 | 7.0 | 11.0 | 0.00 | 0.00 | 0.00 | 73 | 1014.6 |
| 20260510180757 | 67 | 267 | 6.0 | 10.0 | 0.00 | 0.00 | 0.00 | 73 | 1014.6 |
| 20260510180257 | 67 | 257 | 6.0 | 9.0 | 0.00 | 0.00 | 0.00 | 72 | 1014.4 |
| 20260510175757 | 67 | 244 | 4.0 | 9.0 | 0.00 | 0.00 | 0.00 | 73 | 1014.4 |
| 20260510175257 | 67 | 234 | 2.0 | 8.0 | 0.00 | 0.00 | 0.00 | 73 | 1014.5 |
| 20260510174757 | 67 | 275 | 0.0 | 0.0 | 0.00 | 0.00 | 0.00 | 73 | 1014.4 |
| 20260510174257 | 67 | 309 | 0.0 | 0.0 | 0.00 | 0.00 | 0.00 | 73 | 1014.4 |
| 20260510173757 | 68 | 311 | 0.0 | 0.0 | 0.00 | 0.00 | 0.00 | 72 | 1014.2 |
| 20260510173257 | 68 | 311 | 1.0 | 3.0 | 0.00 | 0.00 | 0.00 | 71 | 1014.2 |
| 20260510172757 | 68 | 276 | 2.0 | 6.0 | 0.00 | 0.00 | 0.00 | 70 | 1014.1 |
| 20260510172257 | 68 | 273 | 2.0 | 6.0 | 0.00 | 0.00 | 0.00 | 70 | 1014.2 |
| 20260510171757 | 68 | 313 | 2.0 | 3.0 | 0.00 | 0.00 | 0.00 | 70 | 1014.1 |
| 20260510171257 | 68 | 278 | 5.0 | 8.0 | 0.00 | 0.00 | 0.00 | 70 | 1014.0 |
| 20260510170757 | 69 | 271 | 6.0 | 9.0 | 0.00 | 0.00 | 0.00 | 69 | 1014.0 |
| 20260510170257 | 69 | 258 | 6.0 | 9.0 | 0.00 | 0.00 | 0.00 | 69 | 1014.0 |
| 20260510165757 | 69 | 242 | 6.0 | 9.0 | 0.00 | 0.00 | 0.00 | 67 | 1013.9 |
| 20260510165257 | 69 | 235 | 7.0 | 9.0 | 0.00 | 0.00 | 0.00 | 67 | 1013.8 |
| 20260510164757 | 70 | 244 | 9.0 | 12.0 | 0.00 | 0.00 | 0.00 | 65 | 1013.9 |
| 20260510164257 | 70 | 252 | 6.0 | 10.0 | 0.00 | 0.00 | 0.00 | 61 | 1013.8 |
| 20260510163757 | 70 | 260 | 6.0 | 9.0 | 0.00 | 0.00 | 0.00 | 61 | 1013.8 |
| 20260510163257 | 71 | 250 | 7.0 | 9.0 | 0.00 | 0.00 | 0.00 | 60 | 1013.8 |
| 20260510162757 | 71 | 256 | 7.0 | 10.0 | 0.00 | 0.00 | 0.00 | 60 | 1013.7 |
| 20260510162257 | 71 | 250 | 6.0 | 9.0 | 0.00 | 0.00 | 0.00 | 58 | 1013.6 |
| 20260510161757 | 71 | 223 | 6.0 | 9.0 | 0.00 | 0.00 | 0.00 | 59 | 1013.6 |
| 20260510161257 | 71 | 229 | 7.0 | 10.0 | 0.00 | 0.00 | 0.00 | 59 | 1013.6 |
| 20260510160757 | 71 | 234 | 7.0 | 10.0 | 0.00 | 0.00 | 0.00 | 60 | 1013.6 |
| 20260510160257 | 71 | 224 | 7.0 | 11.0 | 0.00 | 0.00 | 0.00 | 60 | 1013.6 |
| 20260510155757 | 71 | 254 | 7.0 | 10.0 | 0.00 | 0.00 | 0.00 | 61 | 1013.5 |
| 20260510155257 | 71 | 245 | 7.0 | 10.0 | 0.00 | 0.00 | 0.00 | 60 | 1013.7 |
| 20260510154757 | 71 | 256 | 7.0 | 11.0 | 0.00 | 0.00 | 0.00 | 62 | 1013.6 |
| 20260510154258 | 71 | 263 | 7.0 | 11.0 | 0.00 | 0.00 | 0.00 | 62 | 1013.6 |
| 20260510153757 | 71 | 298 | 7.0 | 11.0 | 0.00 | 0.00 | 0.00 | 63 | 1013.7 |
| 20260510153257 | 71 | 268 | 6.0 | 11.0 | 0.00 | 0.00 | 0.00 | 61 | 1013.7 |
| 20260510152757 | 72 | 298 | 7.0 | 8.0 | 0.00 | 0.00 | 0.00 | 64 | 1013.7 |
| 20260510152257 | 72 | 257 | 8.0 | 10.0 | 0.00 | 0.00 | 0.00 | 63 | 1013.8 |
| 20260510151757 | 72 | 250 | 7.0 | 11.0 | 0.00 | 0.00 | 0.00 | 64 | 1013.7 |
| 20260510151258 | 71 | 297 | 7.0 | 11.0 | 0.00 | 0.00 | 0.00 | 66 | 1013.6 |
| 20260510150758 | 71 | 300 | 8.0 | 11.0 | 0.00 | 0.00 | 0.00 | 67 | 1013.7 |
| 20260510150258 | 71 | 297 | 8.0 | 13.0 | 0.00 | 0.00 | 0.00 | 66 | 1013.7 |
| 20260510145758 | 72 | 289 | 8.0 | 10.0 | 0.00 | 0.00 | 0.00 | 67 | 1013.7 |
| 20260510145258 | 72 | 286 | 8.0 | 14.0 | 0.00 | 0.00 | 0.00 | 65 | 1013.7 |
| 20260510144758 | 72 | 317 | 7.0 | 10.0 | 0.00 | 0.00 | 0.00 | 67 | 1013.7 |
| 20260510144258 | 73 | 289 | 5.0 | 10.0 | 0.00 | 0.00 | 0.00 | 68 | 1013.8 |
| 20260510143758 | 73 | 304 | 5.0 | 8.0 | 0.00 | 0.00 | 0.00 | 68 | 1013.7 |
| 20260510143258 | 72 | 301 | 4.0 | 9.0 | 0.00 | 0.00 | 0.00 | 67 | 1013.7 |
| 20260510142758 | 73 | 302 | 3.0 | 7.0 | 0.00 | 0.00 | 0.00 | 68 | 1013.7 |
| 20260510142258 | 73 | 307 | 3.0 | 4.0 | 0.00 | 0.00 | 0.00 | 69 | 1013.7 |
| 20260510141758 | 73 | 334 | 3.0 | 7.0 | 0.00 | 0.00 | 0.00 | 68 | 1013.6 |
| 20260510141258 | 73 | 279 | 3.0 | 7.0 | 0.00 | 0.00 | 0.00 | 68 | 1013.6 |
| 20260510140758 | 73 | 193 | 3.0 | 7.0 | 0.00 | 0.00 | 0.00 | 67 | 1013.7 |
| 20260510140258 | 73 | 182 | 3.0 | 7.0 | 0.00 | 0.00 | 0.00 | 67 | 1013.7 |
| 20260510135758 | 73 | 130 | 2.0 | 4.0 | 0.00 | 0.00 | 0.00 | 67 | 1013.7 |
| 20260510135258 | 73 | 200 | 2.0 | 5.0 | 0.00 | 0.00 | 0.00 | 68 | 1013.8 |
| 20260510134758 | 72 | 240 | 3.0 | 5.0 | 0.00 | 0.00 | 0.00 | 69 | 1013.9 |
| 20260510134258 | 72 | 183 | 2.0 | 5.0 | 0.00 | 0.00 | 0.00 | 69 | 1013.9 |
| 20260510133758 | 72 | 175 | 2.0 | 3.0 | 0.00 | 0.00 | 0.00 | 69 | 1014.0 |
| 20260510133258 | 72 | 122 | 2.0 | 5.0 | 0.00 | 0.00 | 0.00 | 69 | 1014.1 |
| 20260510132758 | 72 | 149 | 2.0 | 4.0 | 0.00 | 0.00 | 0.00 | 70 | 1014.1 |
| 20260510132258 | 71 | 205 | 2.0 | 5.0 | 0.00 | 0.00 | 0.00 | 70 | 1014.2 |
| 20260510131758 | 71 | 283 | 1.0 | 4.0 | 0.00 | 0.00 | 0.00 | 71 | 1014.3 |
| 20260510131258 | 70 | 145 | 2.0 | 3.0 | 0.00 | 0.00 | 0.00 | 71 | 1014.4 |
| 20260510130758 | 70 | 119 | 4.0 | 7.0 | 0.00 | 0.00 | 0.00 | 72 | 1014.6 |
| 20260510130258 | 70 | 110 | 5.0 | 5.0 | 0.00 | 0.00 | 0.00 | 71 | 1014.7 |
| 20260510125758 | 70 | 101 | 5.0 | 7.0 | 0.00 | 0.00 | 0.00 | 71 | 1014.7 |
| 20260510125258 | 70 | 132 | 4.0 | 7.0 | 0.00 | 0.00 | 0.00 | 73 | 1014.8 |
| 20260510124758 | 70 | 116 | 3.0 | 7.0 | 0.00 | 0.00 | 0.00 | 72 | 1014.9 |
| 20260510124258 | 70 | 113 | 4.0 | 7.0 | 0.00 | 0.00 | 0.00 | 72 | 1014.9 |
| 20260510123758 | 70 | 126 | 4.0 | 7.0 | 0.00 | 0.00 | 0.00 | 71 | 1015.0 |
| 20260510123258 | 70 | 126 | 4.0 | 7.0 | 0.00 | 0.00 | 0.00 | 71 | 1015.1 |
| 20260510122758 | 70 | 140 | 4.0 | 8.0 | 0.00 | 0.00 | 0.00 | 72 | 1015.0 |
| 20260510122258 | 69 | 142 | 6.0 | 7.0 | 0.00 | 0.00 | 0.00 | 73 | 1015.1 |
| 20260510121758 | 69 | 113 | 6.0 | 10.0 | 0.00 | 0.00 | 0.00 | 72 | 1015.1 |
| 20260510121258 | 69 | 123 | 6.0 | 9.0 | 0.00 | 0.00 | 0.00 | 72 | 1015.2 |
| 20260510120758 | 69 | 116 | 6.0 | 9.0 | 0.00 | 0.00 | 0.00 | 73 | 1015.3 |
| 20260510120258 | 69 | 92 | 6.0 | 9.0 | 0.00 | 0.00 | 0.00 | 72 | 1015.4 |
| 20260510115758 | 69 | 89 | 5.0 | 7.0 | 0.00 | 0.00 | 0.00 | 73 | 1015.6 |
| 20260510115258 | 69 | 110 | 6.0 | 9.0 | 0.00 | 0.00 | 0.00 | 73 | 1015.6 |
| 20260510114758 | 69 | 140 | 6.0 | 9.0 | 0.00 | 0.00 | 0.00 | 72 | 1015.7 |
| 20260510114258 | 69 | 123 | 6.0 | 9.0 | 0.00 | 0.00 | 0.00 | 72 | 1015.7 |
| 20260510113758 | 69 | 155 | 6.0 | 12.0 | 0.00 | 0.00 | 0.00 | 72 | 1015.7 |
| 20260510113258 | 69 | 103 | 6.0 | 8.0 | 0.00 | 0.00 | 0.00 | 73 | 1015.8 |
| 20260510112758 | 69 | 133 | 4.0 | 10.0 | 0.00 | 0.00 | 0.00 | 72 | 1015.9 |
| 20260510112258 | 69 | 128 | 4.0 | 10.0 | 0.00 | 0.00 | 0.00 | 73 | 1016.0 |
| 20260510111758 | 69 | 158 | 4.0 | 6.0 | 0.00 | 0.00 | 0.00 | 73 | 1016.1 |
| 20260510111258 | 69 | 174 | 5.0 | 9.0 | 0.00 | 0.00 | 0.00 | 73 | 1016.2 |
| 20260510110758 | 69 | 146 | 5.0 | 9.0 | 0.00 | 0.00 | 0.00 | 75 | 1016.2 |
| 20260510110258 | 68 | 109 | 6.0 | 8.0 | 0.00 | 0.00 | 0.00 | 76 | 1016.3 |
| 20260510105758 | 68 | 116 | 6.0 | 9.0 | 0.00 | 0.00 | 0.00 | 76 | 1016.3 |
| 20260510105258 | 68 | 146 | 5.0 | 9.0 | 0.00 | 0.00 | 0.00 | 75 | 1016.3 |
| 20260510104758 | 68 | 113 | 5.0 | 8.0 | 0.00 | 0.00 | 0.00 | 76 | 1016.4 |
| 20260510104258 | 68 | 142 | 6.0 | 9.0 | 0.00 | 0.00 | 0.00 | 76 | 1016.5 |
| 20260510103758 | 68 | 128 | 7.0 | 9.0 | 0.00 | 0.00 | 0.00 | 77 | 1016.6 |
| 20260510103258 | 67 | 139 | 7.0 | 11.0 | 0.00 | 0.00 | 0.00 | 77 | 1016.6 |
| 20260510102758 | 67 | 148 | 7.0 | 10.0 | 0.00 | 0.00 | 0.00 | 76 | 1016.6 |
| 20260510102258 | 67 | 153 | 8.0 | 11.0 | 0.00 | 0.00 | 0.00 | 77 | 1016.6 |
| 20260510101758 | 67 | 134 | 7.0 | 9.0 | 0.00 | 0.00 | 0.00 | 78 | 1016.6 |
| 20260510101258 | 67 | 158 | 6.0 | 10.0 | 0.00 | 0.00 | 0.00 | 78 | 1016.6 |
| 20260510100758 | 67 | 127 | 6.0 | 9.0 | 0.00 | 0.00 | 0.00 | 77 | 1016.6 |
| 20260510100258 | 67 | 139 | 6.0 | 10.0 | 0.00 | 0.00 | 0.00 | 77 | 1016.7 |
| 20260510095758 | 67 | 130 | 6.0 | 8.0 | 0.00 | 0.00 | 0.00 | 78 | 1016.8 |
| 20260510095259 | 67 | 135 | 7.0 | 10.0 | 0.00 | 0.00 | 0.00 | 77 | 1016.9 |
| 20260510094758 | 66 | 150 | 7.0 | 10.0 | 0.00 | 0.00 | 0.00 | 78 | 1017.0 |
| 20260510094258 | 66 | 159 | 8.0 | 10.0 | 0.00 | 0.00 | 0.00 | 77 | 1017.1 |
| 20260510093758 | 66 | 158 | 9.0 | 11.0 | 0.00 | 0.00 | 0.00 | 77 | 1017.1 |
| 20260510093258 | 66 | 150 | 8.0 | 13.0 | 0.00 | 0.00 | 0.00 | 77 | 1017.2 |
| 20260510092758 | 67 | 136 | 7.0 | 10.0 | 0.00 | 0.00 | 0.00 | 77 | 1017.2 |
| 20260510092258 | 67 | 146 | 9.0 | 12.0 | 0.00 | 0.00 | 0.00 | 75 | 1017.3 |
| 20260510091758 | 67 | 170 | 10.0 | 12.0 | 0.00 | 0.00 | 0.00 | 75 | 1017.1 |
| 20260510091258 | 67 | 132 | 9.0 | 12.0 | 0.00 | 0.00 | 0.00 | 74 | 1017.2 |
| 20260510090758 | 67 | 143 | 8.0 | 12.0 | 0.00 | 0.00 | 0.00 | 73 | 1017.2 |
| 20260510090258 | 68 | 161 | 5.0 | 12.0 | 0.00 | 0.00 | 0.00 | 73 | 1017.3 |
| 20260510085758 | 68 | 142 | 2.0 | 6.0 | 0.00 | 0.00 | 0.00 | 74 | 1017.3 |
| 20260510085258 | 68 | 164 | 1.0 | 5.0 | 0.00 | 0.00 | 0.00 | 74 | 1017.3 |
| 20260510084758 | 68 | 184 | 1.0 | 2.0 | 0.00 | 0.00 | 0.00 | 74 | 1017.5 |
| 20260510084258 | 67 | 229 | 2.0 | 4.0 | 0.00 | 0.00 | 0.00 | 74 | 1017.4 |
| 20260510083758 | 67 | 311 | 3.0 | 4.0 | 0.00 | 0.00 | 0.00 | 74 | 1017.4 |
| 20260510083258 | 68 | 294 | 1.0 | 4.0 | 0.00 | 0.00 | 0.00 | 74 | 1017.3 |
| 20260510082758 | 68 | 309 | 1.0 | 4.0 | 0.00 | 0.00 | 0.00 | 74 | 1017.3 |
| 20260510082258 | 67 | 311 | 2.0 | 1.0 | 0.00 | 0.00 | 0.00 | 73 | 1017.4 |
| 20260510081758 | 68 | 308 | 2.0 | 6.0 | 0.00 | 0.00 | 0.00 | 73 | 1017.4 |
| 20260510081258 | 68 | 259 | 2.0 | 6.0 | 0.00 | 0.00 | 0.00 | 73 | 1017.3 |
| 20260510080758 | 68 | 302 | 2.0 | 4.0 | 0.00 | 0.00 | 0.00 | 74 | 1017.2 |
| 20260510080258 | 68 | 344 | 2.0 | 4.0 | 0.00 | 0.00 | 0.00 | 74 | 1017.1 |
| 20260510075758 | 68 | 198 | 1.0 | 3.0 | 0.00 | 0.00 | 0.00 | 75 | 1017.1 |
| 20260510075258 | 68 | 140 | 1.0 | 3.0 | 0.00 | 0.00 | 0.00 | 76 | 1017.2 |
| 20260510074758 | 67 | 0 | 2.0 | 3.0 | 0.00 | 0.00 | 0.00 | 78 | 1017.0 |
| 20260510074258 | 67 | 0 | 2.0 | 2.0 | 0.00 | 0.00 | 0.00 | 78 | 1017.0 |
| 20260510073758 | 66 | 317 | 2.0 | 5.0 | 0.00 | 0.00 | 0.00 | 78 | 1017.1 |
| 20260510073258 | 66 | 314 | 1.0 | 3.0 | 0.00 | 0.00 | 0.00 | 80 | 1017.1 |
| 20260510072758 | 65 | 334 | 2.0 | 3.0 | 0.00 | 0.00 | 0.00 | 81 | 1017.1 |
| 20260510072258 | 65 | 312 | 2.0 | 5.0 | 0.00 | 0.00 | 0.00 | 81 | 1017.2 |
| 20260510071758 | 65 | 291 | 2.0 | 3.0 | 0.00 | 0.00 | 0.00 | 81 | 1017.1 |
| 20260510071258 | 64 | 327 | 2.0 | 3.0 | 0.00 | 0.00 | 0.00 | 82 | 1017.0 |
| 20260510070758 | 64 | 298 | 2.0 | 3.0 | 0.00 | 0.00 | 0.00 | 82 | 1017.1 |
| 20260510070258 | 64 | 0 | 1.0 | 5.0 | 0.00 | 0.00 | 0.00 | 82 | 1017.0 |
| 20260510065758 | 64 | 330 | 1.0 | 2.0 | 0.00 | 0.00 | 0.00 | 82 | 1017.0 |
| 20260510065258 | 64 | 54 | 3.0 | 5.0 | 0.00 | 0.00 | 0.00 | 82 | 1017.0 |
| 20260510064758 | 64 | 355 | 3.0 | 5.0 | 0.00 | 0.00 | 0.00 | 84 | 1016.9 |
| 20260510064259 | 63 | 36 | 3.0 | 5.0 | 0.00 | 0.00 | 0.00 | 83 | 1017.0 |
| 20260510063759 | 63 | 55 | 4.0 | 5.0 | 0.00 | 0.00 | 0.00 | 83 | 1017.1 |
| 20260510063258 | 63 | 9 | 4.0 | 4.0 | 0.00 | 0.00 | 0.00 | 84 | 1017.1 |
| 20260510062758 | 63 | 79 | 4.0 | 7.0 | 0.00 | 0.00 | 0.00 | 83 | 1017.1 |
| 20260510062259 | 63 | 46 | 4.0 | 6.0 | 0.00 | 0.00 | 0.00 | 85 | 1017.0 |
| 20260510061759 | 63 | 17 | 3.0 | 6.0 | 0.00 | 0.00 | 0.00 | 85 | 1017.1 |
| 20260510061259 | 63 | 0 | 2.0 | 5.0 | 0.00 | 0.00 | 0.00 | 86 | 1017.2 |
| 20260510060759 | 63 | 355 | 2.0 | 4.0 | 0.00 | 0.00 | 0.00 | 87 | 1017.4 |
| 20260510060259 | 63 | 348 | 2.0 | 3.0 | 0.00 | 0.00 | 0.00 | 87 | 1017.4 |
| 20260510055759 | 62 | 318 | 2.0 | 5.0 | 0.00 | 0.00 | 0.00 | 87 | 1017.3 |
| 20260510055259 | 62 | 276 | 1.0 | 3.0 | 0.00 | 0.00 | 0.00 | 87 | 1017.4 |
| 20260510054759 | 62 | 224 | 2.0 | 3.0 | 0.00 | 0.00 | 0.00 | 88 | 1017.4 |
| 20260510054259 | 62 | 265 | 2.0 | 4.0 | 0.00 | 0.00 | 0.00 | 88 | 1017.4 |
| 20260510053759 | 61 | 349 | 2.0 | 4.0 | 0.00 | 0.00 | 0.00 | 88 | 1017.3 |
| 20260510053259 | 61 | 340 | 2.0 | 4.0 | 0.00 | 0.00 | 0.00 | 89 | 1017.3 |
| 20260510052759 | 61 | 19 | 2.0 | 6.0 | 0.00 | 0.00 | 0.00 | 89 | 1017.0 |
| 20260510052259 | 60 | 24 | 2.0 | 4.0 | 0.00 | 0.00 | 0.00 | 90 | 1017.0 |
| 20260510051759 | 60 | 32 | 2.0 | 5.0 | 0.00 | 0.00 | 0.00 | 90 | 1016.9 |
| 20260510051259 | 60 | 0 | 2.0 | 5.0 | 0.00 | 0.00 | 0.00 | 90 | 1016.9 |
| 20260510050759 | 59 | 5 | 1.0 | 4.0 | 0.00 | 0.00 | 0.00 | 91 | 1017.0 |
| 20260510050301 | 59 | 336 | 1.0 | 2.0 | 0.00 | 0.00 | 0.00 | 91 | 1017.0 |
| 20260510045759 | 59 | 336 | 2.0 | 2.0 | 0.00 | 0.00 | 0.00 | 91 | 1016.9 |
| 20260510045259 | 58 | 312 | 3.0 | 3.0 | 0.00 | 0.00 | 0.00 | 91 | 1016.8 |
| 20260510044759 | 58 | 263 | 3.0 | 4.0 | 0.00 | 0.00 | 0.00 | 91 | 1016.8 |
| 20260510044259 | 58 | 251 | 1.0 | 4.0 | 0.00 | 0.00 | 0.00 | 91 | 1016.8 |
| 20260510043759 | 58 | 327 | 2.0 | 3.0 | 0.00 | 0.00 | 0.00 | 92 | 1016.6 |
| 20260510043259 | 57 | 306 | 3.0 | 4.0 | 0.00 | 0.00 | 0.00 | 92 | 1016.6 |
| 20260510042759 | 57 | 309 | 3.0 | 4.0 | 0.00 | 0.00 | 0.00 | 92 | 1016.8 |
| 20260510042259 | 57 | 281 | 3.0 | 6.0 | 0.00 | 0.00 | 0.00 | 92 | 1016.6 |
| 20260510041759 | 57 | 276 | 3.0 | 6.0 | 0.00 | 0.00 | 0.00 | 92 | 1016.5 |
| 20260510041259 | 57 | 289 | 3.0 | 4.0 | 0.00 | 0.00 | 0.00 | 92 | 1016.4 |
| 20260510040759 | 57 | 14 | 3.0 | 4.0 | 0.00 | 0.00 | 0.00 | 92 | 1016.5 |
| 20260510040259 | 57 | 38 | 2.0 | 5.0 | 0.00 | 0.00 | 0.00 | 92 | 1016.4 |
| 20260510035759 | 57 | 355 | 1.0 | 3.0 | 0.00 | 0.00 | 0.00 | 92 | 1016.5 |
| 20260510035259 | 57 | 340 | 0.0 | 0.0 | 0.00 | 0.00 | 0.00 | 92 | 1016.5 |
| 20260510034759 | 57 | 340 | 0.0 | 0.0 | 0.00 | 0.00 | 0.00 | 92 | 1016.4 |
| 20260510034259 | 57 | 340 | 0.0 | 3.0 | 0.00 | 0.00 | 0.00 | 92 | 1016.3 |
| 20260510033759 | 56 | 338 | 0.0 | 2.0 | 0.00 | 0.00 | 0.00 | 92 | 1016.4 |
| 20260510033259 | 56 | 5 | 1.0 | 2.0 | 0.00 | 0.00 | 0.00 | 92 | 1016.5 |
| 20260510032759 | 56 | 5 | 2.0 | 3.0 | 0.00 | 0.06 | 0.00 | 92 | 1016.4 |
| 20260510032259 | 56 | 325 | 1.0 | 4.0 | 0.00 | 0.06 | 0.00 | 92 | 1016.4 |
| 20260510031759 | 56 | 355 | 0.0 | 2.0 | 0.00 | 0.06 | 0.00 | 92 | 1016.3 |
| 20260510031259 | 56 | 355 | 2.0 | 3.0 | 0.00 | 0.06 | 0.00 | 92 | 1016.2 |
| 20260510030759 | 56 | 355 | 2.0 | 3.0 | 0.00 | 0.06 | 0.00 | 92 | 1016.1 |
| 20260510030259 | 56 | 0 | 2.0 | 4.0 | 0.00 | 0.06 | 0.00 | 92 | 1016.2 |
| 20260510025759 | 57 | 9 | 2.0 | 3.0 | 0.00 | 0.06 | 0.00 | 92 | 1016.2 |
| 20260510025259 | 56 | 0 | 2.0 | 3.0 | 0.00 | 0.06 | 0.00 | 92 | 1016.2 |
| 20260510024759 | 56 | 5 | 1.0 | 3.0 | 0.00 | 0.06 | 0.00 | 92 | 1016.2 |
| 20260510024259 | 56 | 22 | 0.0 | 0.0 | 0.00 | 0.06 | 0.00 | 92 | 1016.2 |
| 20260510023759 | 56 | 22 | 1.0 | 2.0 | 0.00 | 0.06 | 0.00 | 92 | 1016.1 |
| 20260510023259 | 56 | 22 | 2.0 | 3.0 | 0.00 | 0.06 | 0.00 | 92 | 1016.1 |
| 20260510022759 | 56 | 22 | 3.0 | 5.0 | 0.00 | 0.14 | 0.00 | 92 | 1016.2 |
| 20260510022259 | 56 | 18 | 3.0 | 4.0 | 0.00 | 0.14 | 0.00 | 92 | 1016.2 |
| 20260510021759 | 57 | 348 | 4.0 | 6.0 | 0.00 | 0.14 | 0.00 | 92 | 1016.2 |
| 20260510021259 | 57 | 345 | 3.0 | 5.0 | 0.00 | 0.14 | 0.00 | 92 | 1016.3 |
| 20260510020759 | 57 | 319 | 4.0 | 5.0 | 0.00 | 0.14 | 0.00 | 92 | 1016.4 |
| 20260510020259 | 57 | 314 | 4.0 | 5.0 | 0.00 | 0.14 | 0.00 | 92 | 1016.4 |
| 20260510015759 | 57 | 296 | 3.0 | 7.0 | 0.00 | 0.14 | 0.00 | 92 | 1016.5 |
| 20260510015259 | 57 | 309 | 3.0 | 5.0 | 0.00 | 0.14 | 0.00 | 92 | 1016.4 |
| 20260510014759 | 56 | 293 | 3.0 | 4.0 | 0.00 | 0.14 | 0.00 | 92 | 1016.4 |
| 20260510014259 | 56 | 263 | 3.0 | 4.0 | 0.00 | 0.14 | 0.00 | 92 | 1016.4 |
| 20260510013759 | 56 | 273 | 3.0 | 4.0 | 0.00 | 0.14 | 0.00 | 92 | 1016.4 |
| 20260510013259 | 56 | 296 | 3.0 | 4.0 | 0.00 | 0.14 | 0.00 | 92 | 1016.3 |
| 20260510012759 | 56 | 312 | 3.0 | 4.0 | 0.00 | 0.21 | 0.00 | 92 | 1016.3 |
| 20260510012259 | 56 | 316 | 2.0 | 4.0 | 0.00 | 0.21 | 0.00 | 92 | 1016.3 |
| 20260510011759 | 56 | 315 | 2.0 | 3.0 | 0.00 | 0.21 | 0.00 | 92 | 1016.3 |
| 20260510011259 | 56 | 315 | 3.0 | 4.0 | 0.00 | 0.21 | 0.00 | 92 | 1016.4 |
| 20260510010759 | 55 | 294 | 3.0 | 4.0 | 0.00 | 0.21 | 0.00 | 92 | 1016.2 |
| 20260510010259 | 55 | 290 | 3.0 | 4.0 | 0.00 | 0.21 | 0.00 | 92 | 1016.4 |
| 20260510005759 | 55 | 296 | 3.0 | 4.0 | 0.00 | 0.21 | 0.00 | 92 | 1016.2 |
| 20260510005259 | 55 | 311 | 2.0 | 4.0 | 0.00 | 0.21 | 0.00 | 91 | 1016.3 |
| 20260510004759 | 55 | 355 | 3.0 | 4.0 | 0.00 | 0.21 | 0.00 | 92 | 1016.3 |
| 20260510004259 | 55 | 355 | 3.0 | 5.0 | 0.00 | 0.21 | 0.00 | 91 | 1016.3 |
| 20260510003759 | 56 | 346 | 1.0 | 4.0 | 0.00 | 0.21 | 0.00 | 91 | 1016.5 |
| 20260510003259 | 56 | 341 | 0.0 | 0.0 | 0.00 | 0.21 | 0.00 | 91 | 1016.6 |
| 20260510002759 | 56 | 341 | 0.0 | 0.0 | 0.00 | 0.29 | 0.00 | 91 | 1016.5 |
| 20260510002259 | 56 | 341 | 0.0 | 0.0 | 0.00 | 0.29 | 0.00 | 91 | 1016.5 |
| 20260510001759 | 56 | 341 | 0.0 | 0.0 | 0.00 | 0.29 | 0.00 | 91 | 1016.6 |
| 20260510001259 | 57 | 341 | 0.0 | 0.0 | 0.00 | 0.29 | 0.00 | 91 | 1016.7 |
| 20260510000759 | 57 | 341 | 0.0 | 0.0 | 0.00 | 0.29 | 0.00 | 91 | 1016.8 |
| 20260510000259 | 57 | 341 | 0.0 | 0.0 | 0.00 | 0.29 | 0.00 | 91 | 1016.8 |
| 20260509235759 | 57 | 341 | 0.0 | 0.0 | 0.00 | 0.29 | 0.00 | 91 | 1016.9 |
| 20260509235259 | 57 | 341 | 0.0 | 0.0 | 0.00 | 0.29 | 0.00 | 91 | 1016.9 |
| 20260509234759 | 57 | 341 | 0.0 | 0.0 | 0.00 | 0.29 | 0.00 | 91 | 1016.9 |
| 20260509234259 | 57 | 341 | 0.0 | 0.0 | 0.00 | 0.29 | 0.00 | 91 | 1017.0 |
| 20260509233759 | 57 | 341 | 0.0 | 0.0 | 0.00 | 0.29 | 0.00 | 91 | 1017.1 |
| 20260509233259 | 57 | 341 | 0.0 | 0.0 | 0.00 | 0.29 | 0.00 | 91 | 1017.1 |
| 20260509232759 | 57 | 341 | 0.0 | 0.0 | 0.00 | 0.33 | 0.00 | 91 | 1017.3 |
| 20260509232259 | 57 | 341 | 0.0 | 0.0 | 0.00 | 0.33 | 0.00 | 91 | 1017.4 |
| 20260509231759 | 57 | 341 | 0.0 | 0.0 | 0.00 | 0.33 | 0.00 | 91 | 1017.5 |
| 20260509231259 | 57 | 341 | 0.0 | 1.0 | 0.00 | 0.33 | 0.00 | 90 | 1017.5 |
| 20260509230759 | 57 | 341 | 0.0 | 0.0 | 0.00 | 0.33 | 0.00 | 91 | 1017.6 |
| 20260509230259 | 57 | 341 | 0.0 | 0.0 | 0.00 | 0.33 | 0.00 | 91 | 1017.6 |
| 20260509225759 | 57 | 341 | 0.0 | 0.0 | 0.00 | 0.33 | 0.00 | 91 | 1017.7 |
| 20260509225259 | 57 | 341 | 1.0 | 2.0 | 0.00 | 0.33 | 0.00 | 91 | 1017.6 |
| 20260509224759 | 57 | 340 | 0.0 | 0.0 | 0.00 | 0.33 | 0.00 | 90 | 1017.6 |
| 20260509224259 | 57 | 340 | 0.0 | 0.0 | 0.00 | 0.33 | 0.00 | 90 | 1017.7 |
| 20260509223759 | 57 | 340 | 1.0 | 2.0 | 0.00 | 0.33 | 0.00 | 90 | 1017.7 |
| 20260509223300 | 58 | 340 | 0.0 | 1.0 | 0.00 | 0.33 | 0.00 | 90 | 1017.9 |
| 20260509222759 | 58 | 340 | 1.0 | 1.0 | 0.00 | 0.38 | 0.00 | 89 | 1017.8 |
| 20260509222259 | 58 | 340 | 2.0 | 3.0 | 0.00 | 0.38 | 0.00 | 89 | 1017.8 |
| 20260509221759 | 58 | 341 | 2.0 | 3.0 | 0.00 | 0.38 | 0.00 | 89 | 1017.9 |
| 20260509221259 | 59 | 332 | 1.0 | 3.0 | 0.00 | 0.38 | 0.00 | 90 | 1017.8 |
| 20260509220759 | 58 | 331 | 0.0 | 2.0 | 0.00 | 0.38 | 0.00 | 90 | 1017.8 |
| 20260509220259 | 58 | 332 | 0.0 | 0.0 | 0.00 | 0.38 | 0.00 | 90 | 1017.9 |
| 20260509215759 | 58 | 332 | 0.0 | 0.0 | 0.00 | 0.38 | 0.40 | 89 | 1017.8 |
| 20260509215259 | 59 | 331 | 1.0 | 0.0 | 0.00 | 0.38 | 0.40 | 89 | 1017.9 |
| 20260509214759 | 59 | 331 | 1.0 | 2.0 | 0.00 | 0.38 | 0.40 | 89 | 1017.8 |
| 20260509214259 | 59 | 331 | 1.0 | 2.0 | 0.00 | 0.38 | 0.40 | 88 | 1017.8 |
| 20260509213759 | 59 | 332 | 1.0 | 2.0 | 0.00 | 0.38 | 0.40 | 88 | 1017.7 |
| 20260509213300 | 59 | 332 | 0.0 | 1.0 | 0.00 | 0.38 | 0.40 | 89 | 1017.7 |
| 20260509212759 | 59 | 332 | 0.0 | 0.0 | 0.00 | 0.42 | 0.40 | 88 | 1017.8 |
| 20260509212300 | 60 | 331 | 0.0 | 0.0 | 0.00 | 0.42 | 0.40 | 88 | 1017.9 |
| 20260509211800 | 60 | 331 | 1.0 | 2.0 | 0.00 | 0.42 | 0.40 | 88 | 1017.9 |
| 20260509211300 | 60 | 331 | 1.0 | 2.0 | 0.00 | 0.42 | 0.40 | 88 | 1017.8 |
| 20260509210800 | 60 | 331 | 2.0 | 2.0 | 0.00 | 0.42 | 0.40 | 88 | 1017.7 |
| 20260509210300 | 60 | 331 | 2.0 | 2.0 | 0.00 | 0.42 | 0.40 | 88 | 1017.6 |
| 20260509205800 | 60 | 331 | 1.0 | 2.0 | 0.00 | 0.42 | 0.40 | 88 | 1017.4 |
| 20260509205300 | 60 | 331 | 1.0 | 2.0 | 0.00 | 0.42 | 0.40 | 88 | 1017.4 |
| 20260509204800 | 60 | 332 | 1.0 | 2.0 | 0.00 | 0.42 | 0.40 | 88 | 1017.3 |
| 20260509204300 | 60 | 332 | 0.0 | 0.0 | 0.00 | 0.42 | 0.40 | 88 | 1017.3 |
| 20260509203800 | 60 | 332 | 0.0 | 0.0 | 0.00 | 0.42 | 0.40 | 87 | 1017.2 |
| 20260509203300 | 60 | 332 | 0.0 | 0.0 | 0.00 | 0.42 | 0.40 | 87 | 1017.2 |
| 20260509202800 | 60 | 332 | 0.0 | 1.0 | 0.00 | 0.46 | 0.40 | 87 | 1017.3 |
| 20260509202300 | 60 | 332 | 0.0 | 0.0 | 0.00 | 0.46 | 0.40 | 87 | 1017.1 |
| 20260509201800 | 60 | 332 | 0.0 | 0.0 | 0.00 | 0.46 | 0.40 | 87 | 1017.1 |
| 20260509201300 | 60 | 332 | 0.0 | 0.0 | 0.00 | 0.46 | 0.40 | 86 | 1017.2 |
| 20260509200800 | 60 | 332 | 0.0 | 0.0 | 0.00 | 0.46 | 0.40 | 86 | 1017.2 |
| 20260509200300 | 60 | 332 | 0.0 | 0.0 | 0.00 | 0.46 | 0.40 | 85 | 1017.1 |
| 20260509195800 | 61 | 332 | 1.0 | 2.0 | 0.00 | 0.46 | 0.40 | 85 | 1017.0 |